Albion, NE

2:47 PM CST on December 05, 2019 (GMT -0600)
Albion Municipal

Weather History for KBVN - September, 2019

Change the Weather History Date:

Saturday, September 14, 2019

  Actual Average (KOFK) Record (KOFK)
Temperature  
Mean Temperature 72 °F -  
Max Temperature 85 °F 72 °F 102 °F (1895)
Min Temperature 60 °F 51 °F 35 °F (1989)
Cooling Degree Days 8    
Growing Degree Days 22 (Base 50)    
Moisture  
Dew Point 65 °F    
Average Humidity 81    
Maximum Humidity 97    
Minimum Humidity 62    
Precipitation  
Precipitation 0.00 in - - ()
Sea Level Pressure  
Sea Level Pressure 30.02 in    
Wind  
Wind Speed 6 mph (SSW)    
Max Wind Speed 15 mph    
Max Gust Speed 17 mph    
Visibility 10 miles    
Events      
Averages and records for this station are not official NWS values.
T = Trace of Precipitation, MM = Missing Value Source: NWS Daily Summary

Daily Weather History Graph

Daily Weather History Graph

Search for Another Location

Airport or City:

Astronomy

Sep. 14, 2019 Rise Set
Actual Time 7:11 AM CDT 7:43 PM CDT
Civil Twilight 6:43 AM CDT 8:11 PM CDT
Nautical Twilight 6:10 AM CDT 8:44 PM CDT
Astronomical Twilight 5:36 AM CDT 9:18 PM CDT
Moon 8:25 PM CDT (9/14) 7:25 AM CDT (9/14)
Length of Visible Light 13h 28m
Length of Day
12h 32m
Full, 100% of the Moon is Illuminated
Sep 14
Full
Sep 21
Last Quarter
Sep 28
New
Oct 5
First Quarter
Oct 13
Full

Hourly Weather History & Observations

Time (CDT) Temp. Heat Index Dew Point Humidity Pressure Visibility Wind Dir Wind Speed Gust Speed Precip Events Conditions
12:15 AM 62.6 °F - 58.1 °F 85% 30.11 in 10.0 mi South 4.6 mph - N/A   Clear
12:35 AM 62.6 °F - 57.7 °F 84% 30.11 in 10.0 mi South 4.6 mph - N/A   Clear
12:55 AM 63.0 °F - 57.6 °F 82% 30.10 in 10.0 mi South 5.8 mph - N/A   Clear
1:15 AM 63.9 °F - 57.4 °F 79% 30.11 in 10.0 mi South 4.6 mph - N/A   Clear
1:35 AM 63.5 °F - 57.4 °F 80% 30.11 in 10.0 mi SSW 4.6 mph - N/A   Clear
1:55 AM 63.5 °F - 57.2 °F 80% 30.11 in 10.0 mi South 6.9 mph - N/A   Clear
2:15 AM 63.7 °F - 57.2 °F 79% 30.11 in 10.0 mi South 8.1 mph - N/A   Clear
2:35 AM 64.0 °F - 57.2 °F 78% 30.10 in 10.0 mi South 9.2 mph - N/A   Clear
2:55 AM 62.4 °F - 57.2 °F 83% 30.10 in 10.0 mi Calm Calm - N/A   Clear
3:10 AM 61.7 °F - 57.2 °F 85% 30.10 in 10.0 mi SSE 3.5 mph - N/A   Scattered Clouds
3:35 AM 61.5 °F - 57.4 °F 86% 30.09 in 10.0 mi SE 4.6 mph - N/A   Mostly Cloudy
3:55 AM 61.3 °F - 57.4 °F 87% 30.08 in 10.0 mi SE 4.6 mph - N/A   Scattered Clouds
4:15 AM 61.5 °F - 57.6 °F 87% 30.08 in 10.0 mi SSE 4.6 mph - N/A   Scattered Clouds
4:35 AM 61.2 °F - 57.6 °F 88% 30.07 in 10.0 mi Calm Calm - N/A   Scattered Clouds
4:55 AM 61.5 °F - 57.6 °F 87% 30.07 in 10.0 mi SE 4.6 mph - N/A   Scattered Clouds
5:15 AM 60.8 °F - 57.7 °F 90% 30.05 in 10.0 mi Calm Calm - N/A   Scattered Clouds
5:35 AM 60.3 °F - 58.1 °F 93% 30.05 in 10.0 mi SSE 3.5 mph - N/A   Clear
5:55 AM 60.6 °F - 58.3 °F 92% 30.04 in 10.0 mi SSE 4.6 mph - N/A   Clear
6:15 AM 61.0 °F - 59.0 °F 93% 30.05 in 10.0 mi SE 4.6 mph - N/A   Clear
6:35 AM 61.0 °F - 59.4 °F 94% 30.05 in 10.0 mi SE 4.6 mph - N/A   Clear
6:50 AM 61.0 °F - 59.9 °F 96% 30.05 in 10.0 mi SE 5.8 mph - N/A   Clear
7:15 AM 61.5 °F - 60.4 °F 96% 30.05 in 10.0 mi South 4.6 mph - N/A   Clear
7:35 AM 63.0 °F - 61.7 °F 96% 30.05 in 10.0 mi South 4.6 mph - N/A   Clear
7:55 AM 63.9 °F - 62.4 °F 95% 30.05 in 10.0 mi South 4.6 mph - N/A   Clear
8:35 AM 66.2 °F - 63.5 °F 91% 30.05 in 10.0 mi South 6.9 mph - N/A   Scattered Clouds
8:55 AM 67.3 °F - 64.6 °F 91% 30.05 in 10.0 mi SSW 8.1 mph - N/A   Scattered Clouds
9:35 AM 69.1 °F - 65.7 °F 89% 30.04 in 10.0 mi SSW 10.4 mph - N/A   Overcast
9:55 AM 70.3 °F - 66.2 °F 87% 30.05 in 10.0 mi SSW 12.7 mph 17.3 mph N/A   Overcast
10:15 AM 70.9 °F - 66.6 °F 86% 30.05 in 10.0 mi SSW 12.7 mph - N/A   Overcast
10:55 AM 72.5 °F - 67.1 °F 83% 30.04 in 10.0 mi SSW 12.7 mph - N/A   Overcast
11:15 AM 73.4 °F - 67.3 °F 81% 30.03 in 10.0 mi SSW 13.8 mph 17.3 mph N/A   Overcast
11:55 AM 76.6 °F - 68.5 °F 76% 30.01 in 10.0 mi SSW 11.5 mph - N/A   Mostly Cloudy
12:15 PM 78.3 °F - 69.4 °F 74% 30.01 in 10.0 mi WSW 8.1 mph 16.1 mph N/A   Mostly Cloudy
12:35 PM 79.7 °F - 69.8 °F 72% 30.00 in 10.0 mi SW 8.1 mph - N/A   Scattered Clouds
12:50 PM 80.6 °F 83.9 °F 70.2 °F 70% 30.00 in 10.0 mi SW 10.4 mph - N/A   Clear
1:15 PM 81.9 °F 86.0 °F 70.9 °F 69% 30.00 in 10.0 mi SSW 15.0 mph - N/A   Scattered Clouds
1:35 PM 81.7 °F 85.8 °F 70.9 °F 70% 29.99 in 10.0 mi SSW 10.4 mph 16.1 mph N/A   Scattered Clouds
1:50 PM 81.9 °F 86.0 °F 70.7 °F 69% 29.99 in 10.0 mi SSW 13.8 mph - N/A   Scattered Clouds
2:10 PM 82.6 °F 87.1 °F 71.1 °F 68% 29.98 in 10.0 mi SSW 12.7 mph 16.1 mph N/A   Scattered Clouds
2:30 PM 82.6 °F 87.1 °F 71.2 °F 68% 29.97 in 10.0 mi SSW 11.5 mph 17.3 mph N/A   Mostly Cloudy
2:55 PM 83.7 °F 88.3 °F 70.7 °F 65% 29.97 in 10.0 mi SSW 10.4 mph - N/A   Scattered Clouds
3:10 PM 83.8 °F 88.6 °F 71.1 °F 65% 29.96 in 10.0 mi SSW 9.2 mph 17.3 mph N/A   Scattered Clouds
3:40 PM 84.6 °F 89.7 °F 71.1 °F 64% 29.95 in 10.0 mi SSW 12.7 mph 17.3 mph N/A   Clear
3:50 PM 84.7 °F 90.4 °F 71.8 °F 65% 29.95 in 10.0 mi SSW 12.7 mph - N/A   Clear
4:15 PM 85.1 °F 90.8 °F 71.8 °F 64% 29.95 in 10.0 mi SSW 12.7 mph 16.1 mph N/A   Clear
4:35 PM 85.1 °F 90.4 °F 71.4 °F 63% 29.95 in 10.0 mi SW 12.7 mph - N/A   Clear
4:55 PM 84.9 °F 89.7 °F 70.7 °F 62% 29.94 in 10.0 mi SSW 12.7 mph - N/A   Clear
5:15 PM 85.1 °F 90.4 °F 71.2 °F 63% 29.94 in 10.0 mi SSW 9.2 mph 16.1 mph N/A   Clear
5:30 PM 84.7 °F 89.7 °F 70.7 °F 63% 29.94 in 10.0 mi SSW 10.4 mph - N/A   Clear
5:55 PM 84.4 °F 89.4 °F 71.1 °F 64% 29.94 in 10.0 mi SSW 10.4 mph - N/A   Clear
6:20 PM 83.5 °F 88.5 °F 71.4 °F 67% 29.95 in 10.0 mi SSW 5.8 mph - N/A   Clear
6:35 PM 82.4 °F 87.2 °F 71.6 °F 70% 29.94 in 10.0 mi SSW 6.9 mph - N/A   Clear
7:00 PM 80.2 °F 84.0 °F 71.8 °F 75% 29.95 in 10.0 mi SSW 4.6 mph - N/A   Clear
7:20 PM 78.6 °F - 71.6 °F 79% 29.95 in 10.0 mi South 3.5 mph - N/A   Clear
7:35 PM 76.3 °F - 71.2 °F 84% 29.95 in 10.0 mi Calm Calm - N/A   Clear
8:15 PM 75.0 °F - 70.3 °F 85% 29.96 in 10.0 mi Calm Calm - N/A   Clear
8:30 PM 74.8 °F - 70.2 °F 85% 29.96 in 10.0 mi Calm Calm - N/A   Clear
8:55 PM 75.0 °F - 70.0 °F 84% 29.96 in 10.0 mi Calm Calm - N/A   Clear
9:15 PM 72.3 °F - 69.1 °F 89% 29.97 in 10.0 mi Calm Calm - N/A   Clear
9:35 PM 72.1 °F - 68.7 °F 89% 29.97 in 10.0 mi Calm Calm - N/A   Clear
9:50 PM 71.4 °F - 68.0 °F 89% 29.97 in 10.0 mi Calm Calm - N/A   Clear
10:15 PM 69.8 °F - 67.5 °F 92% 29.97 in 10.0 mi Calm Calm - N/A   Clear
10:35 PM 70.9 °F - 67.6 °F 89% 29.98 in 10.0 mi West 4.6 mph - N/A   Clear
10:55 PM 70.3 °F - 67.1 °F 89% 29.98 in 10.0 mi Calm Calm - N/A   Clear
11:15 PM 67.3 °F - 65.7 °F 95% 29.98 in 10.0 mi NNW 9.2 mph - N/A   Clear
11:30 PM 69.8 °F - 66.9 °F 91% 29.98 in 10.0 mi NNW 5.8 mph - N/A   Clear
11:55 PM 66.2 °F - 65.3 °F 97% 29.98 in 10.0 mi Calm Calm - N/A   Clear